Regional Weather Roundup
Issued by NWS Burlington, VT

Current Version | Previous Version | Text Only | Print | Product List | Glossary On
Versions: 1 2 3 4 5 6 7 8 9 10 11 12 13 14 15 16 17 18 19 20 21 22 23 24 25 26 27 28 29 30 31 32 33 34 35 36 37 38 39 40 41 42 43 44 45 46 47 48 49 50
000 ASUS41 KBTV 291010 RWRBTV VERMONT REGIONAL WEATHER ROUNDUP NATIONAL WEATHER SERVICE BURLINGTON VT 600 AM EDT FRI AUG 29 2014 NOTE: "FAIR" INDICATES FEW OR NO CLOUDS BELOW 12,000 FEET WITH NO SIGNIFICANT WEATHER AND/OR OBSTRUCTIONS TO VISIBILITY. * THESE REPORTS ARE NOT UNDER NWS QUALITY CONTROL AND/OR DO NOT REPORT WEATHER SUCH AS PRECIPITATION AND FOG. VTZ001>019-291100- _____VERMONT_____ CITY SKY/WX TMP DP RH WIND PRES REMARKS BURLINGTON PTSUNNY 56 52 86 CALM 30.14R MONTPELIER SUNNY 51 49 92 CALM 30.18R MORRISVILLE PTSUNNY 50 48 93 CALM 30.16R ST. JOHNSBURY* N/A 53 50 89 MISG 30.12R MIDDLEBURY* CLOUDY 55 55 100 CALM 30.14R RUTLAND* SUNNY 52 48 87 SE6 30.14R SPRINGFIELD SUNNY 49 47 93 CALM 30.13R HIGHGATE* CLOUDY 55 54 94 CALM 30.15R NEWPORT* PTSUNNY 54 52 95 CALM 30.15R BENNINGTON PTSUNNY 49 48 97 CALM 30.14R _____LAKE CHAMPLAIN_____ CITY SKY/WX TMP DP RH WIND PRES REMARKS COLCHESTER RF* N/A 63 54 72 NW9 N/A DIAMOND ISL* N/A 59 55 88 NE2 N/A $$ NYZ007-026>031-035-052-083-291100- _____NORTHERN NEW YORK_____ CITY SKY/WX TMP DP RH WIND PRES REMARKS PLATTSBURGH SUNNY 52 51 97 CALM 30.14R SARANAC LAKE N/A 40 40 100 MISG 30.15R MASSENA SUNNY 48 48 100 CALM 30.17R OGDENSBURG* SUNNY 48 46 93 CALM 30.16R FOG POTSDAM* N/A 48 48 100 CALM 30.17R FOG WATERTOWN SUNNY 47 43 86 SE3 30.16R FT DRUM SUNNY 47 47 99 SE2 30.16R ALBANY MOSUNNY 52 49 89 CALM 30.14R GLENS FALLS SUNNY 57 50 77 N6 30.13R $$ NHZ002-005-011-291100- _____NEW HAMPSHIRE_____ CITY SKY/WX TMP DP RH WIND PRES REMARKS LEBANON SUNNY 48 45 89 CALM 30.12R KEENE SUNNY 46 39 76 CALM 30.13R MT WASHINGTON FOG 37 37 100 W22 N/A VSB 1/16 PLYMOUTH FAIR 56 54 95 W5 30.09R WHITEFIELD CLOUDY 56 52 86 CALM 30.13R $$ _____REGIONAL QUEBEC LOCATIONS_____ CITY SKY/WX TMP DP RH WIND PRES REMARKS MONTREAL MOSUNNY 54 52 94 N6 30.16R QUEBEC CITY MOSUNNY 46 45 93 CALM 30.15R SHERBROOKE CLOUDY 54 52 94 NE5 30.13R _____REGIONAL ONTARIO LOCATIONS_____ CITY SKY/WX TMP DP RH WIND PRES REMARKS OTTAWA SUNNY 52 50 93 VRB2 30.16R ______KEY______ VSB - VISIBILITY IN MILES WCI - WIND CHILL INDEX HX - HEAT INDEX $$

USA.gov is the U.S. government's official web portal to all federal, state and local government web resources and services.